#timestamp,LO_Frequency,Hit,Temp,Hum 
1479585615.2,286047001.7,N,0.0,0.0
1479585635.1,286047001.7,N,0.0,0.0
1479585636.0,286047001.7,N,0.0,0.0
1479585655.8,286047003.9,N,0.0,0.0
1479585675.7,286047001.3,N,0.0,0.0
1479585695.5,286047003.2,N,0.0,0.0
1479585715.3,286047003.9,N,0.0,0.0
1479585735.2,286047005.7,N,0.0,0.0
1479585755.0,286047005.2,N,0.0,0.0
1479585755.9,286047005.2,N,0.0,0.0
1479585775.7,286047007.6,N,0.0,0.0
1479585795.6,286047004.6,N,0.0,0.0
1479585815.4,286047006.7,N,0.0,0.0
1479585835.3,286047005.0,N,0.0,0.0
1479585855.1,286047004.6,N,0.0,0.0
1479585856.0,286047004.6,N,0.0,0.0
1479585875.8,286047004.5,N,0.0,0.0
1479585895.7,286047006.8,N,0.0,0.0
1479585915.5,286047004.9,N,0.0,0.0
1479585935.4,286047004.5,N,0.0,0.0
1479585955.2,286047004.8,N,0.0,0.0
1479585975.0,286047007.5,N,0.0,0.0
1479585975.9,286047007.5,N,0.0,0.0
1479585995.8,286047005.8,N,0.0,0.0
1479586015.6,286047005.3,N,0.0,0.0
1479586035.4,286047004.9,N,0.0,0.0
1479586055.3,286047006.9,N,0.0,0.0
1479586075.1,286047007.2,N,0.0,0.0
1479586095.9,286047007.5,N,0.0,0.0
1479586115.7,286047007.3,N,0.0,0.0
1479586135.5,286047006.6,N,0.0,0.0
1479586155.4,286047006.5,N,0.0,0.0
1479586175.2,286047008.5,N,0.0,0.0
1479586195.0,286047008.3,N,0.0,0.0
1479586196.0,286047008.3,N,0.0,0.0
1479586215.8,286047007.7,N,0.0,0.0
1479586235.6,286047008.2,N,0.0,0.0
1479586255.5,286047010.4,N,0.0,0.0
1479586275.3,286047007.7,N,0.0,0.0
1479586295.1,286047011.9,N,0.0,0.0
1479586315.9,286047009.3,N,0.0,0.0
1479586335.7,286047012.3,N,0.0,0.0
1479586355.6,286047011.6,N,0.0,0.0
1479586375.4,286047013.3,N,0.0,0.0
1479586395.2,286047013.4,N,0.0,0.0
1479586415.1,286047015.5,N,0.0,0.0
1479586416.0,286047015.5,N,0.0,0.0
1479586435.8,286047015.3,N,0.0,0.0
1479586455.6,286047014.3,N,0.0,0.0
1479586475.5,286047014.2,N,0.0,0.0
1479586495.3,286047016.3,N,0.0,0.0
1479586515.2,286047015.7,N,0.0,0.0
1479586535.9,286047018.1,N,0.0,0.0
1479586555.7,286047016.5,N,0.0,0.0
1479586575.6,286047018.4,N,0.0,0.0
1479586595.4,286047016.3,N,0.0,0.0
1479586615.2,286047015.8,N,0.0,0.0
1479586635.1,286047016.4,N,0.0,0.0
1479586636.0,286047016.4,N,0.0,0.0
1479586655.8,286047015.7,N,0.0,0.0
1479586675.7,286047017.6,N,0.0,0.0
1479586695.5,286047019.9,N,0.0,0.0
1479586715.3,286047018.9,N,0.0,0.0
1479586735.2,286047021.5,N,0.0,0.0
1479586755.0,286047023.1,N,0.0,0.0
1479586755.9,286047023.1,N,0.0,0.0
1479586775.8,286047022.1,N,0.0,0.0
1479586795.6,286047022.5,N,0.0,0.0
1479586815.4,286047024.9,N,0.0,0.0
1479586835.3,286047022.6,N,0.0,0.0
1479586855.1,286047024.9,N,0.0,0.0
1479586875.8,286047025.2,N,0.0,0.0
1479586895.7,286047024.9,N,0.0,0.0
1479586915.5,286047025.2,N,0.0,0.0
1479586935.4,286047024.8,N,0.0,0.0
1479586955.2,286047022.5,N,0.0,0.0
1479586975.0,286047024.8,N,0.0,0.0
1479586975.9,286047024.8,N,0.0,0.0
1479586995.8,286047024.6,N,0.0,0.0
1479587015.6,286047023.7,N,0.0,0.0
1479587035.5,286047024.0,N,0.0,0.0
1479587055.3,286047026.4,N,0.0,0.0
1479587075.1,286047026.0,N,0.0,0.0
1479587095.9,286047028.4,N,0.0,0.0
1479587115.7,286047026.1,N,0.0,0.0
1479587135.5,286047025.4,N,0.0,0.0
1479587155.4,286047026.0,N,0.0,0.0
1479587175.2,286047025.8,N,0.0,0.0
1479587195.0,286047025.4,N,0.0,0.0
1479587196.0,286047025.4,N,0.0,0.0
1479587215.8,286047025.6,N,0.0,0.0
1479587235.6,286047025.7,N,0.0,0.0
1479587255.5,286047026.0,N,0.0,0.0
1479587275.3,286047022.9,N,0.0,0.0
1479587295.1,286047020.5,N,0.0,0.0
1479587315.9,286047020.9,N,0.0,0.0
1479587335.7,286047022.8,N,0.0,0.0
1479587355.6,286047023.2,N,0.0,0.0
1479587375.4,286047023.2,N,0.0,0.0
1479587395.2,286047023.0,N,0.0,0.0
1479587415.1,286047024.7,N,0.0,0.0
1479587416.0,286047024.7,N,0.0,0.0
1479587435.8,286047024.5,N,0.0,0.0
1479587455.7,286047024.6,N,0.0,0.0
1479587475.5,286047023.8,N,0.0,0.0
1479587495.3,286047025.7,N,0.0,0.0
1479587515.2,286047025.7,N,0.0,0.0
1479587535.0,286047028.0,N,0.0,0.0
1479587535.9,286047028.0,N,0.0,0.0
1479587555.7,286047027.5,N,0.0,0.0
1479587575.6,286047029.7,N,0.0,0.0
1479587595.4,286047029.1,N,0.0,0.0
1479587615.3,286047031.1,N,0.0,0.0
1479587635.1,286047031.4,N,0.0,0.0
1479587636.0,286047031.4,N,0.0,0.0
1479587655.8,286047030.6,N,0.0,0.0
1479587675.7,286047028.5,N,0.0,0.0
1479587695.5,286047029.8,N,0.0,0.0
1479587715.4,286047030.0,N,0.0,0.0
1479587735.2,286047029.7,N,0.0,0.0
1479587755.0,286047029.6,N,0.0,0.0
1479587755.9,286047029.6,N,0.0,0.0
1479587775.8,286047026.9,N,0.0,0.0
1479587795.6,286047027.4,N,0.0,0.0
1479587815.4,286047027.2,N,0.0,0.0
1479587835.3,286047026.1,N,0.0,0.0
1479587855.1,286047026.5,N,0.0,0.0
1479587875.9,286047026.8,N,0.0,0.0
1479587895.7,286047026.0,N,0.0,0.0
1479587915.5,286047024.2,N,0.0,0.0
1479587935.4,286047024.0,N,0.0,0.0
1479587955.2,286047022.9,N,0.0,0.0
1479587975.0,286047023.0,N,0.0,0.0
1479587976.0,286047023.0,N,0.0,0.0
1479587995.8,286047023.3,N,0.0,0.0
1479588015.6,286047023.0,N,0.0,0.0
1479588035.5,286047023.4,N,0.0,0.0
1479588055.3,286047022.4,N,0.0,0.0
1479588075.1,286047021.4,N,0.0,0.0
1479588095.9,286047021.5,N,0.0,0.0
1479588115.7,286047021.4,N,0.0,0.0
1479588135.6,286047019.4,N,0.0,0.0
1479588155.4,286047017.9,N,0.0,0.0
1479588175.2,286047018.2,N,0.0,0.0
1479588195.1,286047016.0,N,0.0,0.0
1479588196.0,286047016.0,N,0.0,0.0
1479588215.8,286047016.8,N,0.0,0.0
1479588235.6,286047013.0,N,0.0,0.0
1479588255.5,286047013.3,N,0.0,0.0
1479588275.3,286047014.0,N,0.0,0.0
1479588295.2,286047011.0,N,0.0,0.0
1479588315.9,286047012.2,N,0.0,0.0
1479588335.7,286047009.8,N,0.0,0.0
1479588355.6,286047008.0,N,0.0,0.0
1479588375.4,286047010.5,N,0.0,0.0
1479588395.2,286047008.7,N,0.0,0.0
1479588415.1,286047008.5,N,0.0,0.0
1479588416.0,286047008.5,N,0.0,0.0
1479588435.8,286047008.8,N,0.0,0.0
1479588455.7,286047008.3,N,0.0,0.0
1479588475.5,286047006.9,N,0.0,0.0
1479588495.3,286047004.7,N,0.0,0.0
1479588515.2,286047003.2,N,0.0,0.0
1479588535.0,286047003.5,N,0.0,0.0
1479588535.9,286047003.5,N,0.0,0.0
1479588555.8,286047004.3,N,0.0,0.0
1479588575.6,286047001.7,N,0.0,0.0
1479588595.4,286047004.4,N,0.0,0.0
1479588615.3,286047004.1,N,0.0,0.0
1479588635.1,286047004.4,N,0.0,0.0
1479588655.9,286047004.4,N,0.0,0.0
1479588675.7,286047003.8,N,0.0,0.0
1479588695.5,286047002.9,N,0.0,0.0
1479588715.4,286047004.1,N,0.0,0.0
1479588735.2,286047005.9,N,0.0,0.0
1479588755.0,286047003.4,N,0.0,0.0
1479588755.9,286047003.4,N,0.0,0.0
1479588775.8,286047002.9,N,0.0,0.0
1479588795.6,286047003.9,N,0.0,0.0
1479588815.5,286047004.0,N,0.0,0.0
1479588835.3,286047004.4,N,0.0,0.0
1479588855.1,286047003.8,N,0.0,0.0
1479588875.9,286047003.2,N,0.0,0.0
1479588895.7,286047003.1,N,0.0,0.0
1479588915.5,286047001.4,N,0.0,0.0
1479588935.4,286047001.7,N,0.0,0.0
1479588955.2,286047002.3,N,0.0,0.0
1479588975.1,286047002.6,N,0.0,0.0
1479588976.0,286047002.6,N,0.0,0.0
1479588995.8,286047001.5,N,0.0,0.0
1479589015.6,286047004.4,N,0.0,0.0
1479589035.5,286047002.5,N,0.0,0.0
1479589055.3,286047002.7,N,0.0,0.0
1479589075.1,286047002.3,N,0.0,0.0
1479589095.9,286047001.8,N,0.0,0.0
1479589115.7,286047002.1,N,0.0,0.0
1479589135.6,286047002.0,N,0.0,0.0
1479589155.4,286047001.7,N,0.0,0.0
1479589175.2,286047004.0,N,0.0,0.0
1479589195.1,286047001.3,N,0.0,0.0
1479589196.0,286047001.3,N,0.0,0.0
